This demonstration page uses our WeatherBlox Daily Observations layout. Learn more.

Hourly Observations for July 27, 2017

Temp ( °F °C ) Dew Point ( °F °C ) Humidity (%) Winds ( mph kmh ) Pressure ( in mb ) Visibility ( mi km ) Precip ( " mm )
12:53 am 00:53 Mostly Clear 74 23.3 70 21.1 88 88 NE 3 6 30 1016 10 16.0934 0 0
1:53 am 01:53 Mostly Clear 73 22.8 70 21.1 90 90 Calm 29.97 1015 9 14.48406 0 0
2:53 am 02:53 Mostly Clear 72 22.2 70 21.1 94 94 Calm 29.96 1015 9 14.48406 0 0
3:53 am 03:53 Mostly Cloudy 72 22.2 70 21.1 94 94 Calm 29.95 1014 8 12.87472 0 0
4:53 am 04:53 Clear 70 21.1 70 21.1 100 100 Calm 29.95 1014 7 11.26538 0 0
5:53 am 05:53 Clear 70 21.1 69 20.6 97 97 Calm 29.93 1014 7 11.26538 0 0
6:53 am 06:53 Sunny with Mist and Fog 70 21.1 69 20.6 97 97 Calm 29.96 1015 6 9.65604 0 0
7:53 am 07:53 Partly Cloudy with Mist and Fog 74 23.3 72 22.2 94 94 Calm 29.96 1014 6 9.65604 0 0
8:53 am 08:53 Cloudy 76 24.4 73 22.8 91 91 Calm 29.96 1015 7 11.26538 0 0.0254
9:53 am 09:53 Mostly Cloudy 78 25.6 74 23.3 87 87 VRB 3 6 29.96 1014 8 12.87472 0 0
10:53 am 10:53 Mostly Cloudy with Light Rain 78 25.6 75 23.9 90 90 WSW 7 11 29.95 1014 5 8.0467 0 0.0254
11:53 am 11:53 Mostly Cloudy 80 26.7 75 23.9 85 85 SSW 6 9 29.95 1014 7 11.26538 0 0.0254
12:53 pm 12:53 Cloudy 80 26.7 73 22.8 79 79 S 6 9 29.93 1014 9 14.48406 0 0
1:53 pm 13:53 Cloudy 81 27.2 71 21.7 72 72 WSW 12 19 29.92 1013 10 16.0934 0 0
2:53 pm 14:53 Mostly Cloudy with Light Rain 80 26.7 73 22.8 79 79 W 13 20 29.9 1013 7 11.26538 0 0.0254
3:53 pm 15:53 Cloudy with Light Rain 78 25.6 75 23.9 90 90 WNW 9 15 29.9 1013 4 6.43736 0.02 0.508
4:53 pm 16:53 Cloudy with Light Rain 79 26.1 74 23.3 85 85 NNW 7 11 29.89 1012 10 16.0934 0 0.0254
5:53 pm 17:53 Mostly Cloudy with Light Rain 81 27.2 73 22.8 77 77 WNW 8 13 29.86 1011 10 16.0934 0 0.0254
6:53 pm 18:53 Cloudy 80 26.7 74 23.3 82 82 W 6 9 29.86 1011 10 16.0934 0 0.0254
7:53 pm 19:53 Cloudy 79 26.1 72 22.2 79 79 W 8 13 29.87 1011 10 16.0934 0 0
8:26 pm 20:26 Cloudy with Light Rain 76 24.4 75 23.9 97 97 W 5 7 29.88 1012 2.5 4.02335 0.02 0.508
8:34 pm 20:34 Cloudy with Light Rain 76 24.4 75 23.9 97 97 WSW 5 7 29.88 1012 3 4.82802 0.02 0.508
8:50 pm 20:50 Cloudy 75 24 73 23 94 94 WSW 5 7 29.88 1012 8 12.87472 0.02 0.508
8:53 pm 20:53 Cloudy with Light Rain 75 23.9 74 23.3 96 96 WSW 5 7 29.87 1012 8 12.87472 0.02 0.508
9:53 pm 21:53 Cloudy 75 23.9 74 23.3 96 96 W 3 6 29.86 1011 10 16.0934 0 0.0254
10:28 pm 22:28 Cloudy 75 23.9 75 23.9 100 100 Calm 29.88 1012 8 12.87472 0 0
10:53 pm 22:53 Cloudy with Mist and Fog 74 23.3 74 23.3 100 100 Calm 29.86 1011 6 9.65604 0 0
11:11 pm 23:11 Cloudy 74 23.3 74 23.3 100 100 Calm 29.88 1012 7 11.26538 0 0
11:18 pm 23:18 Cloudy 74 23.3 74 23.3 100 100 Calm 29.88 1012 7 11.26538 0 0
11:53 pm 23:53 Cloudy with Mist and Fog 74 23.3 74 23.3 100 100 Calm 29.86 1011 6 9.65604 0 0

Powered by AerisWeather